Location: Twentynine Palms Airport
(34.1316°N, 115.9458°W)
Time: 03:27:22
(UTC-07:00)

Oscar 19 - Visible Passes

Search period start: 05 August 2015 00:00
Search period end: 15 August 2015 00:00
Orbit: 774 x 791 km, 98.5° (Epoch: 04 August)

Date Brightness Start Highest point End Pass type
(mag) Time Alt. Az. Time Alt. Az. Time Alt. Az.
05 Aug 11.9 02:25:25 10° N 02:28:33 38° N 02:28:33 38° N visible
06 Aug 12.4 01:53:49 10° NNE 01:56:23 28° NE 01:56:23 28° NE visible
06 Aug 12.6 03:34:38 10° NNW 03:36:56 16° NW 03:36:56 16° NW visible
07 Aug 13.1 01:22:47 10° NE 01:24:12 16° NE 01:24:12 16° NE visible
07 Aug 12.1 03:01:46 10° N 03:04:46 27° NW 03:04:46 27° NW visible
08 Aug 12.0 02:29:36 10° N 02:32:35 34° N 02:32:35 34° N visible
09 Aug 12.5 01:57:56 10° NNE 02:00:24 28° NNE 02:00:24 28° NNE visible
09 Aug 12.7 03:39:04 10° NNW 03:40:57 14° NW 03:40:57 14° NW visible
10 Aug 13.1 01:26:50 10° NE 01:28:13 17° NE 01:28:13 17° NE visible
10 Aug 12.3 03:06:02 10° N 03:08:46 24° NW 03:08:46 24° NW visible
11 Aug 12.1 02:33:49 10° N 02:36:35 31° N 02:36:35 31° N visible
12 Aug 12.5 02:02:05 10° NNE 02:04:24 27° NNE 02:04:24 27° NNE visible
12 Aug 12.8 03:43:35 10° NW 03:44:58 13° NW 03:44:58 13° NW visible
13 Aug 13.1 01:30:53 10° NE 01:32:13 17° NE 01:32:13 17° NE visible
13 Aug 12.4 03:10:19 10° NNW 03:12:47 22° NW 03:12:47 22° NW visible
14 Aug 12.3 02:38:02 10° N 02:40:35 29° N 02:40:35 29° N visible
